Location: Hermaringen
(48.5952°N, 10.2585°E)
Time: 04:21:51
(UTC+00:00)

S-56A Canister/Altair - Pass Details

Date: 24 February 2026
Orbit: 633 x 2484 km, 38.9° (Epoch: 11 March)

Event Time Altitude Azimuth Distance (km) Brightness Sun altitude
Exits shadow 03:33:35 12° 195° (SSW) 3,813 10.8 -26.5°
Drops below altitude 10° 03:35:05 10° 187° (S) 4,075 11.0 -26.3°
Sets 03:41:29 0° 166° (SSE) 5,500 11.9 -25.3°
